Location: Unspecified
(40.7945°N, 111.1337°W)
Time: 18:30:55
(UTC-06:00)

Cosmos 1674 - Pass Details

Date: 31 March 2019
Orbit: 497 x 519 km, 82.5° (Epoch: 19 April)

Event Time Altitude Azimuth Distance (km) Brightness Sun altitude
Rises 21:04:29 0° 340° (NNW) 2,619 6.9 -14.9°
Reaches altitude 10° 21:06:50 10° 328° (NNW) 1,732 6.1 -15.3°
Maximum altitude 21:10:03 27° 270° (W) 1,017 4.9 -15.9°
Drops below altitude 10° 21:13:16 10° 211° (SSW) 1,730 5.5 -16.4°
Sets 21:15:37 0° 199° (SSW) 2,614 6.3 -16.8°
